This is the latest recevied weather packets stored in our database for station/object K6POO-1. If no packets are shown the sender has not sent any weather packets the latest 10 day(s).
| Time | Temp. | Humidity | Pressure | Rain* | Wind** | Luminosity | Snow |
|---|---|---|---|---|---|---|---|
| 1787849392 | 22.22° C | 67% | 1014.6 hPa | 0 mm | - | 524 W/m² | - |
| 1787849090 | 21.67° C | 68% | 1014.8 hPa | 0 mm | - | 845 W/m² | - |
| 1787848785 | 21.67° C | 69% | 1014.7 hPa | 0 mm | - | 773 W/m² | - |
| 1787848484 | 21.11° C | 70% | 1014.6 hPa | 0 mm | - | 711 W/m² | - |
| 1787848179 | 21.11° C | 70% | 1014.8 hPa | 0 mm | - | 658 W/m² | - |
| 1787847879 | 21.11° C | 70% | 1014.7 hPa | 0 mm | - | 312 W/m² | - |
| 1787847574 | 21.11° C | 71% | 1014.8 hPa | 0 mm | - | 620 W/m² | - |
| 1787847269 | 20.56° C | 73% | 1014.7 hPa | 0 mm | - | 587 W/m² | - |
| 1787846966 | 20.56° C | 72% | 1014.8 hPa | 0 mm | - | 543 W/m² | - |
| 1787846673 | 20.56° C | 73% | 1014.6 hPa | 0 mm | - | 530 W/m² | - |
| 1787846361 | 20° C | 73% | 1014.9 hPa | 0 mm | - | 582 W/m² | - |
| 1787846056 | 20° C | 72% | 1014.6 hPa | 0 mm | - | 447 W/m² | - |
| 1787845753 | 20.56° C | 71% | 1014.8 hPa | 0 mm | - | 180 W/m² | - |
| 1787845453 | 20.56° C | 73% | 1014.6 hPa | 0 mm | - | 468 W/m² | - |
| 1787845149 | 20° C | 73% | 1014.6 hPa | 0 mm | - | 446 W/m² | - |
| 1787844844 | 20° C | 74% | 1014.7 hPa | 0 mm | - | 368 W/m² | - |
| 1787844543 | 20° C | 73% | 1014.6 hPa | 0 mm | - | 322 W/m² | - |
| 1787844238 | 20° C | 73% | 1014.7 hPa | 0 mm | - | 282 W/m² | - |
| 1787843937 | 20° C | 74% | 1014.8 hPa | 0 mm | - | 272 W/m² | - |
| 1787843632 | 19.44° C | 77% | 1014.6 hPa | 0 mm | - | 278 W/m² | - |
| 1787843329 | 18.89° C | 78% | 1014.8 hPa | 0 mm | - | 252 W/m² | - |
| 1787843024 | 18.33° C | 79% | 1014.6 hPa | 0 mm | - | 217 W/m² | - |
| 1787842723 | 18.33° C | 80% | 1014.7 hPa | 0 mm | - | 178 W/m² | - |
| 1787842414 | 18.33° C | 82% | 1014.6 hPa | 0 mm | - | 141 W/m² | - |
| 1787842114 | 17.78° C | 83% | 1014.5 hPa | 0 mm | - | 119 W/m² | - |
* Rain latest hour (hover to see other rain measurements)
** Current wind speed in m/s (hover to see current wind gust speed)